This demonstration page uses our WeatherBlox Daily Observations layout. Learn more.

38.89511, -77.03637

Hourly Observations for February 15, 2020

Temp ( °F °C ) Dew Point ( °F °C ) Humidity (%) Winds ( mph kmh ) Pressure ( in mb ) Visibility ( mi km ) Precip ( " mm )
12:52 am 00:52 Clear 25 -3.9 9 -12.8 50 50 N 14 22 30.62 1037 10 16.0934 0 0
1:52 am 01:52 Clear 25 -3.9 9 -12.8 50 50 N 9 15 30.61 1037 10 16.0934 0 0
2:52 am 02:52 Clear 25 -3.9 9 -12.8 50 50 NNE 10 17 30.62 1037 10 16.0934 0 0
3:52 am 03:52 Clear 24 -4.4 8 -13.3 50 50 NNE 8 13 30.62 1037 10 16.0934 0 0
4:52 am 04:52 Clear 24 -4.4 9 -12.8 52 52 NE 8 13 30.63 1037 10 16.0934 0 0
5:52 am 05:52 Clear 23 -5 8 -13.3 53 53 NE 9 15 30.63 1037 10 16.0934 0 0
6:52 am 06:52 Clear 22 -5.6 9 -12.8 57 57 ENE 8 13 30.65 1038 10 16.0934 0 0
7:52 am 07:52 Sunny 24 -4.4 9 -12.8 52 52 E 5 7 30.68 1039 10 16.0934 0 0
8:52 am 08:52 Mostly Sunny 26 -3.3 8 -13.3 46 46 E 8 13 30.68 1039 10 16.0934 0 0
9:52 am 09:52 Mostly Sunny 27 -2.8 9 -12.8 46 46 VRB 3 6 30.67 1039 10 16.0934 0 0
10:52 am 10:52 Mostly Cloudy 29 -1.7 11 -11.7 47 47 S 6 9 30.65 1038 10 16.0934 0 0
11:52 am 11:52 Mostly Cloudy 31 -0.6 12 -11.1 45 45 SSE 7 11 30.62 1037 10 16.0934 0 0
12:52 pm 12:52 Mostly Cloudy 33 0.6 12 -11.1 42 42 VRB 7 11 30.57 1035 10 16.0934 0 0
1:52 pm 13:52 Cloudy 36 2.2 14 -10 40 40 S 9 15 30.53 1034 10 16.0934 0 0
2:52 pm 14:52 Cloudy 36 2.2 15 -9.4 42 42 S 12 19 30.5 1033 10 16.0934 0 0
3:52 pm 15:52 Cloudy 36 2.2 15 -9.4 42 42 S 12 19 30.49 1032 10 16.0934 0 0
4:52 pm 16:52 Cloudy 36 2.2 16 -8.9 44 44 S 10 17 30.46 1032 10 16.0934 0 0
5:52 pm 17:52 Mostly Cloudy 35 1.7 16 -8.9 46 46 SSE 9 15 30.46 1031 10 16.0934 0 0
6:52 pm 18:52 Mostly Cloudy 34 1.1 18 -7.8 52 52 SSE 9 15 30.45 1031 10 16.0934 0 0
7:52 pm 19:52 Mostly Cloudy 33 0.6 17 -8.3 52 52 SSE 8 13 30.43 1031 10 16.0934 0 0
8:52 pm 20:52 Mostly Cloudy 33 0.6 18 -7.8 54 54 S 13 20 30.41 1030 10 16.0934 0 0
9:52 pm 21:52 Mostly Cloudy 33 0.6 20 -6.7 58 58 S 13 20 30.38 1029 10 16.0934 0 0
10:52 pm 22:52 Cloudy 33 0.6 20 -6.7 58 58 SSW 12 19 30.36 1028 10 16.0934 0 0
11:52 pm 23:52 Cloudy 33 0.6 20 -6.7 58 58 SW 5 7 30.35 1028 10 16.0934 0 0

Powered by AerisWeather